This is the latest recevied weather packets stored in our database for station/object N8DMH-13. If no packets are shown the sender has not sent any weather packets the latest 10 day(s).
| Time | Temp. | Humidity | Pressure | Rain* | Wind** | Luminosity | Snow |
|---|---|---|---|---|---|---|---|
| 1777952540 | 7.78° C | 82% | 998 hPa | 0 mm | - | - | - |
| 1777952239 | 8.33° C | 82% | 998.1 hPa | 0 mm | - | - | - |
| 1777951939 | 8.33° C | 82% | 997.9 hPa | 0 mm | - | - | - |
| 1777951609 | 8.33° C | 83% | 997.8 hPa | 0 mm | - | - | - |
| 1777951279 | 8.33° C | 81% | 997.8 hPa | 0 mm | - | - | - |
| 1777950949 | 8.33° C | 80% | 997.4 hPa | 0 mm | - | - | - |
| 1777950649 | 8.33° C | 81% | 997.4 hPa | 0 mm | - | - | - |
| 1777950319 | 8.33° C | 80% | 997.2 hPa | 0 mm | - | - | - |
| 1777949988 | 8.89° C | 78% | 997.2 hPa | 0 mm | - | - | - |
| 1777949688 | 9.44° C | 77% | 997 hPa | 0 mm | - | - | - |
| 1777949388 | 10° C | 76% | 996.8 hPa | 0.25 mm | - | - | - |
| 1777949058 | 10.56° C | 75% | 996.9 hPa | 0.25 mm | - | - | - |
| 1777948758 | 10.56° C | 76% | 996.5 hPa | 0.25 mm | - | - | - |
| 1777948428 | 11.11° C | 74% | 996.3 hPa | 0.25 mm | - | - | - |
| 1777948128 | 12.22° C | 73% | 996.2 hPa | 0.25 mm | - | - | - |
| 1777947828 | 12.78° C | 74% | 996.1 hPa | 0.25 mm | - | - | - |
| 1777947198 | 13.33° C | 81% | 995.6 hPa | 0.51 mm | - | - | - |
| 1777946868 | 12.78° C | 83% | 995.5 hPa | 0.51 mm | - | - | - |
| 1777946538 | 12.78° C | 83% | 995.4 hPa | 0.51 mm | - | - | - |
| 1777946237 | 13.33° C | 83% | 995.4 hPa | 0.51 mm | - | - | - |
| 1777945907 | 13.33° C | 82% | 995.3 hPa | 0.51 mm | - | - | - |
| 1777945577 | 13.33° C | 81% | 995.3 hPa | 0.51 mm | - | - | - |
| 1777945277 | 13.33° C | 80% | 995.2 hPa | 0.25 mm | - | - | - |
| 1777944977 | 13.33° C | 80% | 995 hPa | 0.25 mm | - | - | - |
| 1777944648 | 13.33° C | 79% | 995.2 hPa | 0.25 mm | - | - | - |
* Rain latest hour (hover to see other rain measurements)
** Current wind speed in m/s (hover to see current wind gust speed)